Time,TemperatureF,DewpointF,PressureIn,WindDirection,WindDirectionDegrees,WindSpeedMPH,WindSpeedGustMPH,Humidity,HourlyPrecipIn,Conditions,Clouds,dailyrainin,SoftwareType,DateUTC
2013-11-08 00:04:00,34.5,28.6,29.80,SW,232,0.0,0.0,79,0.00,RA,OVC,0.00,WeatherDisplay:10.37,2013-11-08 05:04:00,
2013-11-08 00:09:00,34.4,28.6,29.80,SW,232,0.0,4.0,79,0.00,OVC,OVC,0.00,WeatherDisplay:10.37,2013-11-08 05:09:00,
2013-11-08 00:14:00,34.3,28.5,29.79,WSW,238,0.0,3.0,79,0.00,OVC,OVC,0.00,WeatherDisplay:10.37,2013-11-08 05:14:00,
2013-11-08 00:19:00,34.2,28.4,29.79,WSW,239,0.0,4.0,79,0.00,OVC,OVC,0.00,WeatherDisplay:10.37,2013-11-08 05:19:00,
2013-11-08 00:24:00,34.2,28.3,29.79,WSW,243,0.0,1.0,79,0.00,OVC,OVC,0.00,WeatherDisplay:10.37,2013-11-08 05:24:00,
2013-11-08 00:29:00,34.1,28.3,29.79,WSW,243,0.0,0.0,79,0.00,OVC,OVC,0.00,WeatherDisplay:10.37,2013-11-08 05:29:00,
2013-11-08 00:34:00,34.0,28.2,29.79,SW,234,0.0,3.0,79,0.00,OVC,OVC,0.00,WeatherDisplay:10.37,2013-11-08 05:34:00,
2013-11-08 00:39:00,33.9,28.1,29.79,WSW,237,0.0,2.0,79,0.00,OVC,OVC,0.00,WeatherDisplay:10.37,2013-11-08 05:39:00,
2013-11-08 00:44:00,33.7,27.9,29.79,West,265,0.0,4.0,79,0.00,OVC,OVC,0.00,WeatherDisplay:10.37,2013-11-08 05:44:00,
2013-11-08 00:49:00,33.6,28.1,29.79,West,275,0.0,2.0,80,0.00,OVC,OVC,0.00,WeatherDisplay:10.37,2013-11-08 05:49:00,
2013-11-08 00:54:00,33.5,28.0,29.79,WSW,258,0.0,1.0,80,0.00,OVC,OVC,0.00,WeatherDisplay:10.37,2013-11-08 05:54:00,
2013-11-08 00:59:00,33.4,27.9,29.79,WSW,254,0.0,2.0,80,0.00,OVC,OVC,0.00,WeatherDisplay:10.37,2013-11-08 05:59:00,
2013-11-08 01:04:00,33.3,27.8,29.79,WSW,251,1.0,2.0,80,0.00,OVC,OVC,0.00,WeatherDisplay:10.37,2013-11-08 06:04:00,
2013-11-08 01:09:00,33.2,27.7,29.79,WSW,248,0.0,2.0,80,0.00,OVC,OVC,0.00,WeatherDisplay:10.37,2013-11-08 06:09:00,
2013-11-08 01:14:00,33.1,27.6,29.79,West,279,0.0,2.0,80,0.00,OVC,OVC,0.00,WeatherDisplay:10.37,2013-11-08 06:14:00,
2013-11-08 01:19:00,33.1,27.6,29.78,WNW,295,0.0,2.0,80,0.00,OVC,OVC,0.00,WeatherDisplay:10.37,2013-11-08 06:19:00,
2013-11-08 01:24:00,32.9,27.4,29.79,West,264,0.0,3.0,80,0.00,OVC,OVC,0.00,WeatherDisplay:10.37,2013-11-08 06:24:00,
2013-11-08 01:29:00,32.8,27.3,29.79,SW,232,1.0,2.0,80,0.00,OVC,OVC,0.00,WeatherDisplay:10.37,2013-11-08 06:29:00,
2013-11-08 01:34:00,32.7,27.2,29.79,SW,234,0.0,4.0,80,0.00,OVC,OVC,0.00,WeatherDisplay:10.37,2013-11-08 06:34:00,
2013-11-08 01:39:00,32.6,27.1,29.79,WSW,240,1.0,3.0,80,0.00,OVC,OVC,0.00,WeatherDisplay:10.37,2013-11-08 06:39:00,
2013-11-08 01:44:00,32.5,27.0,29.79,WSW,241,1.0,3.0,80,0.00,OVC,OVC,0.00,WeatherDisplay:10.37,2013-11-08 06:44:00,
2013-11-08 01:49:00,32.4,26.9,29.79,WSW,245,0.0,1.0,80,0.00,OVC,OVC,0.00,WeatherDisplay:10.37,2013-11-08 06:49:00,
2013-11-08 01:54:00,32.2,27.0,29.79,WNW,286,0.0,3.0,81,0.00,OVC,OVC,0.00,WeatherDisplay:10.37,2013-11-08 06:54:00,
2013-11-08 01:59:00,32.1,26.9,29.79,WNW,293,0.0,1.0,81,0.00,OVC,OVC,0.00,WeatherDisplay:10.37,2013-11-08 06:59:00,
2013-11-08 02:04:00,31.9,26.7,29.79,WNW,298,0.0,1.0,81,0.00,OVC,OVC,0.00,WeatherDisplay:10.37,2013-11-08 07:04:00,
2013-11-08 02:09:00,31.8,26.6,29.79,WNW,294,0.0,0.0,81,0.00,OVC,OVC,0.00,WeatherDisplay:10.37,2013-11-08 07:09:00,
2013-11-08 02:14:00,31.6,26.7,29.79,WNW,292,0.0,2.0,82,0.00,OVC,OVC,0.00,WeatherDisplay:10.37,2013-11-08 07:14:00,
2013-11-08 02:19:00,31.5,26.6,29.79,WNW,287,0.0,1.0,82,0.00,OVC,OVC,0.00,WeatherDisplay:10.37,2013-11-08 07:19:00,
2013-11-08 02:24:00,31.4,26.5,29.79,West,281,0.0,2.0,82,0.00,OVC,OVC,0.00,WeatherDisplay:10.37,2013-11-08 07:24:00,
2013-11-08 02:34:00,31.2,26.3,29.79,West,280,0.0,0.0,82,0.00,OVC,OVC,0.00,WeatherDisplay:10.37,2013-11-08 07:34:00,
2013-11-08 02:39:00,31.1,26.2,29.79,West,280,0.0,1.0,82,0.00,OVC,OVC,0.00,WeatherDisplay:10.37,2013-11-08 07:39:00,
2013-11-08 02:44:00,31.0,26.4,29.79,West,280,0.0,0.0,83,0.00,OVC,OVC,0.00,WeatherDisplay:10.37,2013-11-08 07:44:00,
2013-11-08 02:49:00,30.9,26.3,29.79,West,280,0.0,0.0,83,0.00,OVC,OVC,0.00,WeatherDisplay:10.37,2013-11-08 07:49:00,
2013-11-08 02:54:00,30.7,26.1,29.79,West,280,0.0,0.0,83,0.00,OVC,OVC,0.00,WeatherDisplay:10.37,2013-11-08 07:54:00,
2013-11-08 02:59:00,30.6,26.1,29.79,West,280,0.0,0.0,83,0.00,OVC,OVC,0.00,WeatherDisplay:10.37,2013-11-08 07:59:00,
2013-11-08 03:04:00,30.5,26.2,29.79,West,280,0.0,0.0,84,0.00,OVC,OVC,0.00,WeatherDisplay:10.37,2013-11-08 08:04:00,
2013-11-08 03:09:00,30.4,26.1,29.79,West,280,0.0,0.0,84,0.00,OVC,OVC,0.00,WeatherDisplay:10.37,2013-11-08 08:09:00,
2013-11-08 03:14:00,30.3,26.0,29.79,West,280,0.0,0.0,84,0.00,BKN,OVC,0.00,WeatherDisplay:10.37,2013-11-08 08:14:00,
2013-11-08 03:19:00,30.2,25.9,29.79,West,280,0.0,0.0,84,0.00,BKN,OVC,0.00,WeatherDisplay:10.37,2013-11-08 08:19:00,
2013-11-08 03:24:00,30.0,25.8,29.79,West,280,0.0,0.0,84,0.00,BKN,OVC,0.00,WeatherDisplay:10.37,2013-11-08 08:24:00,
2013-11-08 03:29:00,29.9,26.0,29.79,West,280,0.0,0.0,85,0.00,BKN,OVC,0.00,WeatherDisplay:10.37,2013-11-08 08:29:00,
2013-11-08 03:34:00,29.8,26.1,29.79,West,280,0.0,0.0,86,0.00,BKN,OVC,0.00,WeatherDisplay:10.37,2013-11-08 08:34:00,
2013-11-08 03:39:00,29.7,26.0,29.79,West,280,0.0,0.0,86,0.00,BKN,OVC,0.00,WeatherDisplay:10.37,2013-11-08 08:39:00,
2013-11-08 03:44:00,29.6,26.2,29.79,West,280,0.0,0.0,87,0.00,BKN,OVC,0.00,WeatherDisplay:10.37,2013-11-08 08:44:00,
2013-11-08 03:49:00,29.6,26.2,29.79,West,280,0.0,1.0,87,0.00,BKN,OVC,0.00,WeatherDisplay:10.37,2013-11-08 08:49:00,
2013-11-08 03:54:00,29.5,26.1,29.79,West,280,0.0,0.0,87,0.00,BKN,OVC,0.00,WeatherDisplay:10.37,2013-11-08 08:54:00,
2013-11-08 03:59:00,29.5,26.4,29.79,WNW,283,0.0,1.0,88,0.00,BKN,OVC,0.00,WeatherDisplay:10.37,2013-11-08 08:59:00,
2013-11-08 04:04:00,29.5,26.4,29.79,WNW,295,0.0,0.0,88,0.00,BKN,OVC,0.00,WeatherDisplay:10.37,2013-11-08 09:04:00,
2013-11-08 04:09:00,29.5,26.4,29.79,WNW,301,0.0,0.0,88,0.00,BKN,OVC,0.00,WeatherDisplay:10.37,2013-11-08 09:09:00,
2013-11-08 04:14:00,29.7,26.6,29.79,NW,308,1.0,4.0,88,0.00,BKN,OVC,0.00,WeatherDisplay:10.37,2013-11-08 09:14:00,
2013-11-08 04:19:00,30.0,26.9,29.79,WNW,302,1.0,4.0,88,0.00,BKN,OVC,0.00,WeatherDisplay:10.37,2013-11-08 09:19:00,
2013-11-08 04:24:00,30.4,27.0,29.79,WNW,290,1.0,5.0,87,0.00,BKN,OVC,0.00,WeatherDisplay:10.37,2013-11-08 09:24:00,
2013-11-08 04:29:00,30.7,27.0,29.79,WNW,298,1.0,3.0,86,0.00,BKN,OVC,0.00,WeatherDisplay:10.37,2013-11-08 09:29:00,
2013-11-08 04:34:00,31.1,27.1,29.79,West,272,1.0,4.0,85,0.00,BKN,OVC,0.00,WeatherDisplay:10.37,2013-11-08 09:34:00,
2013-11-08 04:39:00,31.4,27.1,29.80,WNW,286,1.0,3.0,84,0.00,BKN,OVC,0.00,WeatherDisplay:10.37,2013-11-08 09:39:00,
2013-11-08 04:44:00,31.6,27.3,29.80,WNW,282,0.0,3.0,84,0.00,BKN,OVC,0.00,WeatherDisplay:10.37,2013-11-08 09:44:00,
2013-11-08 04:49:00,31.8,27.3,29.80,West,268,1.0,4.0,83,0.00,BKN,OVC,0.00,WeatherDisplay:10.37,2013-11-08 09:49:00,
2013-11-08 04:54:00,32.0,27.5,29.80,West,276,0.0,3.0,83,0.00,BKN,OVC,0.00,WeatherDisplay:10.37,2013-11-08 09:54:00,
2013-11-08 04:59:00,32.2,27.6,29.80,West,278,1.0,3.0,83,0.00,BKN,OVC,0.00,WeatherDisplay:10.37,2013-11-08 09:59:00,
2013-11-08 05:04:00,32.3,27.4,29.80,WNW,298,0.0,2.0,82,0.00,BKN,OVC,0.00,WeatherDisplay:10.37,2013-11-08 10:04:00,
2013-11-08 05:09:00,32.4,27.5,29.80,WNW,282,0.0,2.0,82,0.00,BKN,OVC,0.00,WeatherDisplay:10.37,2013-11-08 10:09:00,
2013-11-08 05:14:00,32.5,27.6,29.80,West,275,1.0,3.0,82,0.00,BKN,OVC,0.00,WeatherDisplay:10.37,2013-11-08 10:14:00,
2013-11-08 05:19:00,32.5,27.6,29.80,WNW,302,0.0,2.0,82,0.00,BKN,OVC,0.00,WeatherDisplay:10.37,2013-11-08 10:19:00,
2013-11-08 05:24:00,32.6,27.4,29.80,WNW,299,0.0,2.0,81,0.00,BKN,OVC,0.00,WeatherDisplay:10.37,2013-11-08 10:24:00,
2013-11-08 05:29:00,32.6,27.4,29.80,WNW,292,0.0,0.0,81,0.00,BKN,OVC,0.00,WeatherDisplay:10.37,2013-11-08 10:29:00,
2013-11-08 05:34:00,32.6,27.4,29.80,WNW,294,0.0,5.0,81,0.00,BKN,OVC,0.00,WeatherDisplay:10.37,2013-11-08 10:34:00,
2013-11-08 05:39:00,32.6,27.4,29.80,NW,310,0.0,0.0,81,0.00,BKN,OVC,0.00,WeatherDisplay:10.37,2013-11-08 10:39:00,
2013-11-08 05:44:00,32.6,27.4,29.80,NW,306,0.0,2.0,81,0.00,BKN,OVC,0.00,WeatherDisplay:10.37,2013-11-08 10:44:00,
2013-11-08 05:49:00,32.6,27.4,29.80,WNW,296,0.0,1.0,81,0.00,BKN,OVC,0.00,WeatherDisplay:10.37,2013-11-08 10:49:00,
2013-11-08 05:54:00,32.5,27.3,29.80,WNW,291,1.0,5.0,81,0.00,BKN,OVC,0.00,WeatherDisplay:10.37,2013-11-08 10:54:00,
2013-11-08 05:59:00,32.5,27.3,29.80,WNW,291,0.0,2.0,81,0.00,BKN,OVC,0.00,WeatherDisplay:10.37,2013-11-08 10:59:00,
2013-11-08 06:04:00,32.4,27.5,29.80,WNW,301,0.0,4.0,82,0.00,BKN,OVC,0.00,WeatherDisplay:10.37,2013-11-08 11:04:00,
2013-11-08 06:09:00,32.4,27.2,29.80,NW,307,0.0,3.0,81,0.00,BKN,OVC,0.00,WeatherDisplay:10.37,2013-11-08 11:09:00,
2013-11-08 06:14:00,32.4,27.2,29.80,WNW,297,1.0,4.0,81,0.00,OVC,OVC,0.00,WeatherDisplay:10.37,2013-11-08 11:14:00,
2013-11-08 06:19:00,32.3,27.1,29.81,WNW,292,1.0,5.0,81,0.00,OVC,OVC,0.00,WeatherDisplay:10.37,2013-11-08 11:19:00,
2013-11-08 06:24:00,32.3,27.1,29.81,WNW,295,1.0,5.0,81,0.00,OVC,OVC,0.00,WeatherDisplay:10.37,2013-11-08 11:24:00,
2013-11-08 06:29:00,32.3,27.5,29.81,WNW,297,1.0,5.0,82,0.00,OVC,OVC,0.00,WeatherDisplay:10.37,2013-11-08 11:29:00,
2013-11-08 06:34:00,32.4,27.2,29.81,WNW,288,0.0,3.0,81,0.00,OVC,OVC,0.00,WeatherDisplay:10.37,2013-11-08 11:34:00,
2013-11-08 06:39:00,32.4,27.2,29.81,WNW,297,2.0,6.0,81,0.00,OVC,OVC,0.00,WeatherDisplay:10.37,2013-11-08 11:39:00,
2013-11-08 06:44:00,32.5,27.3,29.81,NW,320,2.0,6.0,81,0.00,OVC,OVC,0.00,WeatherDisplay:10.37,2013-11-08 11:44:00,
2013-11-08 06:49:00,32.6,27.4,29.81,NW,316,1.0,7.0,81,0.00,OVC,OVC,0.00,WeatherDisplay:10.37,2013-11-08 11:49:00,
2013-11-08 06:54:00,32.7,27.5,29.81,NW,304,2.0,9.0,81,0.00,OVC,OVC,0.00,WeatherDisplay:10.37,2013-11-08 11:54:00,
2013-11-08 06:59:00,32.8,27.6,29.81,NW,305,2.0,6.0,81,0.00,OVC,OVC,0.00,WeatherDisplay:10.37,2013-11-08 11:59:00,
2013-11-08 07:04:00,32.9,27.4,29.81,WNW,288,1.0,6.0,80,0.00,OVC,OVC,0.00,WeatherDisplay:10.37,2013-11-08 12:04:00,
2013-11-08 07:09:00,32.9,27.4,29.82,WNW,283,1.0,5.0,80,0.00,OVC,OVC,0.00,WeatherDisplay:10.37,2013-11-08 12:09:00,
2013-11-08 07:14:00,33.0,27.5,29.82,WNW,284,5.0,9.0,80,0.00,BKN,OVC,0.00,WeatherDisplay:10.37,2013-11-08 12:14:00,
2013-11-08 07:19:00,33.0,27.2,29.82,WNW,291,3.0,6.0,79,0.00,BKN,OVC,0.00,WeatherDisplay:10.37,2013-11-08 12:19:00,
2013-11-08 07:24:00,33.1,27.3,29.82,WNW,292,3.0,8.0,79,0.00,BKN,OVC,0.00,WeatherDisplay:10.37,2013-11-08 12:24:00,
2013-11-08 07:29:00,33.1,27.3,29.82,WNW,289,5.0,8.0,79,0.00,BKN,OVC,0.00,WeatherDisplay:10.37,2013-11-08 12:29:00,
2013-11-08 07:34:00,33.2,27.1,29.83,WNW,299,2.0,8.0,78,0.00,BKN,OVC,0.00,WeatherDisplay:10.37,2013-11-08 12:34:00,
2013-11-08 07:39:00,33.2,27.1,29.83,WNW,300,3.0,9.0,78,0.00,BKN,OVC,0.00,WeatherDisplay:10.37,2013-11-08 12:39:00,
2013-11-08 07:44:00,33.3,27.2,29.83,WNW,302,1.0,9.0,78,0.00,BKN,OVC,0.00,WeatherDisplay:10.37,2013-11-08 12:44:00,
2013-11-08 07:49:00,33.3,27.2,29.83,NW,306,1.0,6.0,78,0.00,BKN,OVC,0.00,WeatherDisplay:10.37,2013-11-08 12:49:00,
2013-11-08 07:54:00,33.3,26.9,29.83,NW,307,3.0,6.0,77,0.00,BKN,OVC,0.00,WeatherDisplay:10.37,2013-11-08 12:54:00,
2013-11-08 07:59:00,33.4,27.3,29.83,NW,306,2.0,3.0,78,0.00,BKN,OVC,0.00,WeatherDisplay:10.37,2013-11-08 12:59:00,
2013-11-08 08:04:00,33.4,27.0,29.84,WNW,292,3.0,8.0,77,0.00,BKN,OVC,0.00,WeatherDisplay:10.37,2013-11-08 13:04:00,
2013-11-08 08:09:00,33.7,26.9,29.84,NW,306,3.0,10.0,76,0.00,BKN,OVC,0.00,WeatherDisplay:10.37,2013-11-08 13:09:00,
2013-11-08 08:14:00,34.0,26.9,29.84,NW,311,3.0,12.0,75,0.00,BKN,OVC,0.00,WeatherDisplay:10.37,2013-11-08 13:14:00,
2013-11-08 08:19:00,34.3,26.9,29.84,WNW,299,2.0,6.0,74,0.00,BKN,OVC,0.00,WeatherDisplay:10.37,2013-11-08 13:19:00,
2013-11-08 08:24:00,34.6,26.8,29.84,NW,308,5.0,9.0,73,0.00,BKN,OVC,0.00,WeatherDisplay:10.37,2013-11-08 13:24:00,
2013-11-08 08:29:00,34.7,26.6,29.84,WNW,301,5.0,10.0,72,0.00,BKN,OVC,0.00,WeatherDisplay:10.37,2013-11-08 13:29:00,
2013-11-08 08:34:00,34.6,26.5,29.84,WNW,291,3.0,10.0,72,0.00,BKN,OVC,0.00,WeatherDisplay:10.37,2013-11-08 13:34:00,
2013-11-08 08:39:00,34.6,26.2,29.84,WNW,295,8.0,14.0,71,0.00,BKN,OVC,0.00,WeatherDisplay:10.37,2013-11-08 13:39:00,
2013-11-08 08:44:00,34.5,26.1,29.84,NW,305,5.0,12.0,71,0.00,BKN,OVC,0.00,WeatherDisplay:10.37,2013-11-08 13:44:00,
2013-11-08 08:49:00,34.4,26.3,29.84,NW,304,6.0,12.0,72,0.00,BKN,OVC,0.00,WeatherDisplay:10.37,2013-11-08 13:49:00,
2013-11-08 08:54:00,34.3,26.2,29.84,WNW,301,6.0,10.0,72,0.00,BKN,OVC,0.00,WeatherDisplay:10.37,2013-11-08 13:54:00,
2013-11-08 08:59:00,34.2,26.1,29.84,WNW,299,5.0,12.0,72,0.00,BKN,OVC,0.00,WeatherDisplay:10.37,2013-11-08 13:59:00,
2013-11-08 09:04:00,34.8,26.7,29.84,WNW,295,6.0,10.0,72,0.00,BKN,OVC,0.00,WeatherDisplay:10.37,2013-11-08 14:04:00,
2013-11-08 09:09:00,35.7,26.9,29.84,WNW,289,3.0,10.0,70,0.00,BKN,OVC,0.00,WeatherDisplay:10.37,2013-11-08 14:09:00,
2013-11-08 09:14:00,36.5,27.3,29.84,WNW,298,6.0,13.0,69,0.00,BKN,OVC,0.00,WeatherDisplay:10.37,2013-11-08 14:14:00,
2013-11-08 09:19:00,36.6,27.1,29.84,WNW,300,5.0,12.0,68,0.00,BKN,OVC,0.00,WeatherDisplay:10.37,2013-11-08 14:19:00,
2013-11-08 09:24:00,36.5,26.9,29.84,WNW,296,7.0,13.0,68,0.00,BKN,OVC,0.00,WeatherDisplay:10.37,2013-11-08 14:24:00,
2013-11-08 09:29:00,36.3,26.4,29.84,WNW,302,7.0,12.0,67,0.00,BKN,OVC,0.00,WeatherDisplay:10.37,2013-11-08 14:29:00,
2013-11-08 09:34:00,36.1,26.6,29.84,NW,313,7.0,13.0,68,0.00,BKN,OVC,0.00,WeatherDisplay:10.37,2013-11-08 14:34:00,
2013-11-08 09:39:00,36.0,26.5,29.85,NW,313,5.0,14.0,68,0.00,BKN,OVC,0.00,WeatherDisplay:10.37,2013-11-08 14:39:00,
2013-11-08 09:44:00,36.0,26.1,29.85,NW,313,8.0,14.0,67,0.00,BKN,OVC,0.00,WeatherDisplay:10.37,2013-11-08 14:44:00,
2013-11-08 09:49:00,36.0,26.1,29.85,NW,320,6.0,14.0,67,0.00,BKN,OVC,0.00,WeatherDisplay:10.37,2013-11-08 14:49:00,
2013-11-08 09:59:00,36.3,26.7,29.85,NW,305,7.0,12.0,68,0.00,BKN,OVC,0.00,WeatherDisplay:10.37,2013-11-08 14:59:00,
2013-11-08 10:04:00,36.5,26.6,29.85,NW,310,7.0,13.0,67,0.00,BKN,OVC,0.00,WeatherDisplay:10.37,2013-11-08 15:04:00,
2013-11-08 10:09:00,36.4,26.8,29.85,NW,312,6.0,14.0,68,0.00,BKN,OVC,0.00,WeatherDisplay:10.37,2013-11-08 15:09:00,
2013-11-08 10:14:00,36.4,27.2,29.86,WNW,300,6.0,13.0,69,0.00,BKN,OVC,0.00,WeatherDisplay:10.37,2013-11-08 15:14:00,
2013-11-08 10:19:00,36.3,26.7,29.86,NW,304,8.0,15.0,68,0.00,BKN,OVC,0.00,WeatherDisplay:10.37,2013-11-08 15:19:00,
2013-11-08 10:29:00,36.3,26.7,29.86,NW,310,6.0,12.0,68,0.00,BKN,OVC,0.00,WeatherDisplay:10.37,2013-11-08 15:29:00,
2013-11-08 10:34:00,36.4,26.9,29.86,NW,321,7.0,14.0,68,0.00,BKN,OVC,0.00,WeatherDisplay:10.37,2013-11-08 15:34:00,
2013-11-08 10:39:00,36.5,26.9,29.86,NW,307,7.0,14.0,68,0.00,BKN,OVC,0.00,WeatherDisplay:10.37,2013-11-08 15:39:00,
2013-11-08 10:44:00,36.5,26.6,29.87,NW,304,12.0,17.0,67,0.00,BKN,OVC,0.00,WeatherDisplay:10.37,2013-11-08 15:44:00,
2013-11-08 10:49:00,36.3,26.4,29.87,WNW,302,9.0,17.0,67,0.00,BKN,OVC,0.00,WeatherDisplay:10.37,2013-11-08 15:49:00,
2013-11-08 10:54:00,36.3,26.7,29.87,WNW,299,8.0,16.0,68,0.00,BKN,OVC,0.00,WeatherDisplay:10.37,2013-11-08 15:54:00,
2013-11-08 10:59:00,36.3,26.7,29.87,NW,318,8.0,21.0,68,0.00,BKN,OVC,0.00,WeatherDisplay:10.37,2013-11-08 15:59:00,
2013-11-08 11:04:00,36.3,26.4,29.86,NW,306,12.0,20.0,67,0.00,BKN,OVC,0.00,WeatherDisplay:10.37,2013-11-08 16:04:00,
2013-11-08 11:09:00,36.5,27.3,29.86,WNW,290,5.0,13.0,69,0.00,BKN,OVC,0.00,WeatherDisplay:10.37,2013-11-08 16:09:00,
2013-11-08 11:14:00,36.5,26.9,29.87,WNW,289,8.0,15.0,68,0.00,BKN,OVC,0.00,WeatherDisplay:10.37,2013-11-08 16:14:00,
2013-11-08 11:19:00,36.5,26.9,29.87,NW,311,8.0,14.0,68,0.00,BKN,OVC,0.00,WeatherDisplay:10.37,2013-11-08 16:19:00,
2013-11-08 11:24:00,36.4,26.8,29.87,NW,313,7.0,15.0,68,0.00,OVC,OVC,0.00,WeatherDisplay:10.37,2013-11-08 16:24:00,
2013-11-08 11:29:00,36.4,26.8,29.87,NW,304,9.0,14.0,68,0.00,OVC,OVC,0.00,WeatherDisplay:10.37,2013-11-08 16:29:00,
2013-11-08 11:34:00,36.7,26.7,29.87,NNW,329,9.0,17.0,67,0.00,OVC,OVC,0.00,WeatherDisplay:10.37,2013-11-08 16:34:00,
2013-11-08 11:39:00,36.6,27.0,29.87,NW,305,8.0,16.0,68,0.00,OVC,OVC,0.00,WeatherDisplay:10.37,2013-11-08 16:39:00,
2013-11-08 11:44:00,36.6,26.7,29.87,WNW,297,8.0,16.0,67,0.00,OVC,OVC,0.00,WeatherDisplay:10.37,2013-11-08 16:44:00,
2013-11-08 11:49:00,37.4,27.5,29.87,WNW,296,5.0,9.0,67,0.00,OVC,OVC,0.00,WeatherDisplay:10.37,2013-11-08 16:49:00,
2013-11-08 11:54:00,37.4,26.7,29.87,NW,305,9.0,17.0,65,0.00,OVC,OVC,0.00,WeatherDisplay:10.37,2013-11-08 16:54:00,
2013-11-08 11:59:00,37.6,27.3,29.87,NW,325,5.0,10.0,66,0.00,OVC,OVC,0.00,WeatherDisplay:10.37,2013-11-08 16:59:00,
2013-11-08 12:04:00,37.8,27.1,29.87,NW,315,6.0,16.0,65,0.00,OVC,OVC,0.00,WeatherDisplay:10.37,2013-11-08 17:04:00,
2013-11-08 12:09:00,37.7,27.0,29.87,WNW,298,9.0,18.0,65,0.00,OVC,OVC,0.00,WeatherDisplay:10.37,2013-11-08 17:09:00,
2013-11-08 12:14:00,37.3,27.0,29.87,WNW,294,9.0,18.0,66,0.00,OVC,OVC,0.00,WeatherDisplay:10.37,2013-11-08 17:14:00,
2013-11-08 12:19:00,37.1,26.8,29.87,WNW,299,10.0,18.0,66,0.00,OVC,OVC,0.00,WeatherDisplay:10.37,2013-11-08 17:19:00,
2013-11-08 12:24:00,37.2,26.9,29.87,NW,315,8.0,14.0,66,0.00,OVC,OVC,0.00,WeatherDisplay:10.37,2013-11-08 17:24:00,
2013-11-08 12:29:00,37.4,27.1,29.87,WNW,291,6.0,13.0,66,0.00,OVC,OVC,0.00,WeatherDisplay:10.37,2013-11-08 17:29:00,
2013-11-08 12:39:00,37.2,26.9,29.87,WNW,303,6.0,10.0,66,0.00,OVC,OVC,0.00,WeatherDisplay:10.37,2013-11-08 17:39:00,
2013-11-08 12:44:00,37.0,26.4,29.87,NW,311,6.0,15.0,65,0.00,OVC,OVC,0.00,WeatherDisplay:10.37,2013-11-08 17:44:00,
2013-11-08 12:49:00,37.1,27.2,29.87,NW,307,7.0,12.0,67,0.00,OVC,OVC,0.00,WeatherDisplay:10.37,2013-11-08 17:49:00,
2013-11-08 12:54:00,37.1,26.8,29.87,WNW,286,8.0,16.0,66,0.00,OVC,OVC,0.00,WeatherDisplay:10.37,2013-11-08 17:54:00,
2013-11-08 12:59:00,37.1,26.8,29.88,WNW,288,9.0,20.0,66,0.00,OVC,OVC,0.00,WeatherDisplay:10.37,2013-11-08 17:59:00,
2013-11-08 13:04:00,36.9,26.9,29.88,WNW,296,10.0,17.0,67,0.00,OVC,OVC,0.00,WeatherDisplay:10.37,2013-11-08 18:04:00,
2013-11-08 13:09:00,36.7,26.8,29.88,WNW,294,8.0,13.0,67,0.00,OVC,OVC,0.00,WeatherDisplay:10.37,2013-11-08 18:09:00,
2013-11-08 13:14:00,36.7,26.8,29.88,WNW,296,7.0,17.0,67,0.00,OVC,OVC,0.00,WeatherDisplay:10.37,2013-11-08 18:14:00,
2013-11-08 13:19:00,36.6,26.6,29.88,NW,308,7.0,17.0,67,0.00,OVC,OVC,0.00,WeatherDisplay:10.37,2013-11-08 18:19:00,
2013-11-08 13:24:00,36.6,27.0,29.88,NW,314,7.0,13.0,68,0.00,BKN,OVC,0.00,WeatherDisplay:10.37,2013-11-08 18:24:00,
2013-11-08 13:29:00,36.7,27.5,29.89,WNW,297,8.0,14.0,69,0.00,BKN,OVC,0.00,WeatherDisplay:10.37,2013-11-08 18:29:00,
2013-11-08 13:34:00,36.9,27.7,29.89,WNW,293,7.0,14.0,69,0.00,BKN,OVC,0.00,WeatherDisplay:10.37,2013-11-08 18:34:00,
2013-11-08 13:39:00,37.1,27.8,29.89,WNW,292,6.0,14.0,69,0.00,BKN,OVC,0.00,WeatherDisplay:10.37,2013-11-08 18:39:00,
2013-11-08 13:44:00,37.6,28.3,29.89,NW,310,5.0,12.0,69,0.00,BKN,OVC,0.00,WeatherDisplay:10.37,2013-11-08 18:44:00,
2013-11-08 13:49:00,37.6,28.0,29.89,NW,312,6.0,16.0,68,0.00,BKN,OVC,0.00,WeatherDisplay:10.37,2013-11-08 18:49:00,
2013-11-08 13:54:00,37.1,27.5,29.89,WNW,295,7.0,15.0,68,0.00,BKN,OVC,0.00,WeatherDisplay:10.37,2013-11-08 18:54:00,
2013-11-08 13:59:00,37.3,28.1,29.89,WNW,294,5.0,12.0,69,0.00,BKN,OVC,0.00,WeatherDisplay:10.37,2013-11-08 18:59:00,
2013-11-08 14:04:00,37.6,28.0,29.89,WNW,296,6.0,15.0,68,0.00,BKN,OVC,0.00,WeatherDisplay:10.37,2013-11-08 19:04:00,
2013-11-08 14:09:00,37.7,28.1,29.89,WNW,302,2.0,12.0,68,0.00,BKN,OVC,0.00,WeatherDisplay:10.37,2013-11-08 19:09:00,
2013-11-08 14:14:00,37.2,26.9,29.89,NW,315,9.0,16.0,66,0.00,BKN,OVC,0.00,WeatherDisplay:10.37,2013-11-08 19:14:00,
2013-11-08 14:19:00,36.9,26.6,29.89,NW,315,10.0,15.0,66,0.00,BKN,OVC,0.00,WeatherDisplay:10.37,2013-11-08 19:19:00,
2013-11-08 14:24:00,37.1,26.8,29.90,NW,322,10.0,20.0,66,0.00,BKN,OVC,0.00,WeatherDisplay:10.37,2013-11-08 19:24:00,
2013-11-08 14:34:00,37.8,27.8,29.90,NW,315,1.0,8.0,67,0.00,BKN,OVC,0.00,WeatherDisplay:10.37,2013-11-08 19:34:00,
2013-11-08 14:39:00,37.9,27.2,29.90,NW,305,8.0,13.0,65,0.00,BKN,OVC,0.00,WeatherDisplay:10.37,2013-11-08 19:39:00,
2013-11-08 14:44:00,37.4,26.7,29.90,WNW,300,7.0,20.0,65,0.00,BKN,OVC,0.00,WeatherDisplay:10.37,2013-11-08 19:44:00,
2013-11-08 14:49:00,37.3,27.0,29.91,NW,308,9.0,17.0,66,0.00,BKN,OVC,0.00,WeatherDisplay:10.37,2013-11-08 19:49:00,
2013-11-08 14:54:00,37.3,26.6,29.91,NW,317,8.0,15.0,65,0.00,BKN,OVC,0.00,WeatherDisplay:10.37,2013-11-08 19:54:00,
2013-11-08 14:59:00,37.5,26.8,29.91,NW,324,8.0,14.0,65,0.00,BKN,OVC,0.00,WeatherDisplay:10.37,2013-11-08 19:59:00,
2013-11-08 15:04:00,37.8,27.1,29.91,NW,313,7.0,14.0,65,0.00,BKN,OVC,0.00,WeatherDisplay:10.37,2013-11-08 20:04:00,
2013-11-08 15:09:00,37.5,26.8,29.92,WNW,293,6.0,13.0,65,0.00,BKN,OVC,0.00,WeatherDisplay:10.37,2013-11-08 20:09:00,
2013-11-08 15:14:00,37.2,26.9,29.92,WNW,291,5.0,11.0,66,0.00,BKN,OVC,0.00,WeatherDisplay:10.37,2013-11-08 20:14:00,
2013-11-08 15:19:00,37.3,27.0,29.92,WNW,296,5.0,14.0,66,0.00,BKN,OVC,0.00,WeatherDisplay:10.37,2013-11-08 20:19:00,
2013-11-08 15:24:00,37.2,26.8,29.92,WNW,301,12.0,17.0,66,0.00,BKN,OVC,0.00,WeatherDisplay:10.37,2013-11-08 20:24:00,
2013-11-08 15:29:00,36.9,26.6,29.92,WNW,293,9.0,14.0,66,0.00,BKN,OVC,0.00,WeatherDisplay:10.37,2013-11-08 20:29:00,
2013-11-08 15:34:00,36.7,26.8,29.93,WNW,289,6.0,13.0,67,0.00,BKN,OVC,0.00,WeatherDisplay:10.37,2013-11-08 20:34:00,
2013-11-08 15:39:00,36.7,26.8,29.93,WNW,300,5.0,13.0,67,0.00,BKN,OVC,0.00,WeatherDisplay:10.37,2013-11-08 20:39:00,
2013-11-08 15:44:00,36.6,26.3,29.93,NW,309,7.0,20.0,66,0.00,BKN,OVC,0.00,WeatherDisplay:10.37,2013-11-08 20:44:00,
2013-11-08 15:49:00,36.6,25.9,29.94,WNW,300,9.0,17.0,65,0.00,BKN,OVC,0.00,WeatherDisplay:10.37,2013-11-08 20:49:00,
2013-11-08 15:54:00,36.5,25.9,29.93,NW,305,10.0,16.0,65,0.00,BKN,OVC,0.00,WeatherDisplay:10.37,2013-11-08 20:54:00,
2013-11-08 15:59:00,36.5,25.8,29.94,NW,311,7.0,13.0,65,0.00,BKN,OVC,0.00,WeatherDisplay:10.37,2013-11-08 20:59:00,
2013-11-08 16:04:00,36.5,26.2,29.94,NW,311,6.0,18.0,66,0.00,BKN,OVC,0.00,WeatherDisplay:10.37,2013-11-08 21:04:00,
2013-11-08 16:09:00,36.3,26.4,29.94,WNW,291,7.0,14.0,67,0.00,BKN,OVC,0.00,WeatherDisplay:10.37,2013-11-08 21:09:00,
2013-11-08 16:14:00,36.2,26.3,29.94,WNW,297,6.0,12.0,67,0.00,BKN,OVC,0.00,WeatherDisplay:10.37,2013-11-08 21:14:00,
2013-11-08 16:19:00,36.1,26.5,29.95,NW,305,5.0,12.0,68,0.00,BKN,OVC,0.00,WeatherDisplay:10.37,2013-11-08 21:19:00,
2013-11-08 16:24:00,36.0,26.5,29.95,NW,315,6.0,9.0,68,0.00,BKN,OVC,0.00,WeatherDisplay:10.37,2013-11-08 21:24:00,
2013-11-08 16:29:00,36.0,26.5,29.95,NW,313,2.0,9.0,68,0.00,BKN,OVC,0.00,WeatherDisplay:10.37,2013-11-08 21:29:00,
2013-11-08 16:34:00,35.9,26.4,29.95,NW,304,6.0,10.0,68,0.00,BKN,OVC,0.00,WeatherDisplay:10.37,2013-11-08 21:34:00,
2013-11-08 16:39:00,35.9,26.4,29.95,WNW,302,3.0,12.0,68,0.00,BKN,OVC,0.00,WeatherDisplay:10.37,2013-11-08 21:39:00,
2013-11-08 16:44:00,35.9,26.4,29.96,WNW,303,2.0,12.0,68,0.00,BKN,OVC,0.00,WeatherDisplay:10.37,2013-11-08 21:44:00,
2013-11-08 16:49:00,35.9,26.4,29.96,WNW,291,5.0,15.0,68,0.00,BKN,OVC,0.00,WeatherDisplay:10.37,2013-11-08 21:49:00,
2013-11-08 16:59:00,35.8,27.0,29.96,WNW,298,5.0,13.0,70,0.00,OVC,OVC,0.00,WeatherDisplay:10.37,2013-11-08 21:59:00,
2013-11-08 17:04:00,35.7,26.9,29.97,NW,306,2.0,8.0,70,0.00,OVC,OVC,0.00,WeatherDisplay:10.37,2013-11-08 22:04:00,
2013-11-08 17:09:00,35.6,27.2,29.97,NW,320,2.0,12.0,71,0.00,OVC,OVC,0.00,WeatherDisplay:10.37,2013-11-08 22:09:00,
2013-11-08 17:14:00,35.6,26.8,29.97,NW,308,6.0,12.0,70,0.00,OVC,OVC,0.00,WeatherDisplay:10.37,2013-11-08 22:14:00,
2013-11-08 17:19:00,35.5,26.7,29.97,NW,306,2.0,8.0,70,0.00,OVC,OVC,0.00,WeatherDisplay:10.37,2013-11-08 22:19:00,
2013-11-08 17:24:00,35.4,26.6,29.97,NW,313,3.0,9.0,70,0.00,OVC,OVC,0.00,WeatherDisplay:10.37,2013-11-08 22:24:00,
2013-11-08 17:29:00,35.2,26.4,29.97,NW,310,5.0,12.0,70,0.00,OVC,OVC,0.00,WeatherDisplay:10.37,2013-11-08 22:29:00,
2013-11-08 17:34:00,35.1,26.3,29.97,WNW,288,3.0,12.0,70,0.00,BKN,OVC,0.00,WeatherDisplay:10.37,2013-11-08 22:34:00,
2013-11-08 17:39:00,34.9,26.1,29.97,West,274,2.0,7.0,70,0.00,BKN,OVC,0.00,WeatherDisplay:10.37,2013-11-08 22:39:00,
2013-11-08 17:44:00,34.8,26.0,29.97,West,280,2.0,6.0,70,0.00,BKN,OVC,0.00,WeatherDisplay:10.37,2013-11-08 22:44:00,
2013-11-08 17:49:00,34.6,25.8,29.98,WNW,292,2.0,7.0,70,0.00,BKN,OVC,0.00,WeatherDisplay:10.37,2013-11-08 22:49:00,
2013-11-08 17:54:00,34.5,25.7,29.98,WNW,293,1.0,5.0,70,0.00,BKN,OVC,0.00,WeatherDisplay:10.37,2013-11-08 22:54:00,
2013-11-08 17:59:00,34.4,25.7,29.98,WNW,283,2.0,9.0,70,0.00,BKN,OVC,0.00,WeatherDisplay:10.37,2013-11-08 22:59:00,
2013-11-08 18:04:00,34.4,25.6,29.98,WNW,290,3.0,7.0,70,0.00,BKN,OVC,0.00,WeatherDisplay:10.37,2013-11-08 23:04:00,
2013-11-08 18:09:00,34.4,25.6,29.99,WNW,299,3.0,8.0,70,0.00,BKN,OVC,0.00,WeatherDisplay:10.37,2013-11-08 23:09:00,
2013-11-08 18:14:00,34.4,25.6,29.99,WNW,301,2.0,12.0,70,0.00,FEW,OVC,0.00,WeatherDisplay:10.37,2013-11-08 23:14:00,
2013-11-08 18:19:00,34.4,25.6,29.99,WNW,293,5.0,16.0,70,0.00,FEW,OVC,0.00,WeatherDisplay:10.37,2013-11-08 23:19:00,
2013-11-08 18:24:00,34.5,25.7,29.99,WNW,292,5.0,10.0,70,0.00,FEW,OVC,0.00,WeatherDisplay:10.37,2013-11-08 23:24:00,
2013-11-08 18:29:00,34.5,25.4,30.00,WNW,282,2.0,9.0,69,0.00,FEW,OVC,0.00,WeatherDisplay:10.37,2013-11-08 23:29:00,
2013-11-08 18:34:00,34.6,25.5,30.00,West,272,3.0,13.0,69,0.00,FEW,OVC,0.00,WeatherDisplay:10.37,2013-11-08 23:34:00,
2013-11-08 18:39:00,34.6,25.5,30.00,WNW,291,5.0,10.0,69,0.00,FEW,OVC,0.00,WeatherDisplay:10.37,2013-11-08 23:39:00,
2013-11-08 18:44:00,34.6,26.2,30.00,WNW,291,5.0,20.0,71,0.00,FEW,OVC,0.00,WeatherDisplay:10.37,2013-11-08 23:44:00,
2013-11-08 18:49:00,34.6,26.2,30.00,NW,306,3.0,12.0,71,0.00,FEW,OVC,0.00,WeatherDisplay:10.37,2013-11-08 23:49:00,
2013-11-08 18:54:00,34.5,26.1,30.00,WNW,302,5.0,13.0,71,0.00,FEW,OVC,0.00,WeatherDisplay:10.37,2013-11-08 23:54:00,
2013-11-08 18:59:00,34.4,26.0,30.00,WNW,301,2.0,8.0,71,0.00,FEW,OVC,0.00,WeatherDisplay:10.37,2013-11-08 23:59:00,
2013-11-08 19:04:00,34.3,25.9,30.00,WNW,297,3.0,8.0,71,0.00,FEW,OVC,0.00,WeatherDisplay:10.37,2013-11-09 00:04:00,
2013-11-08 19:09:00,34.3,25.5,30.01,NW,308,5.0,13.0,70,0.00,FEW,OVC,0.00,WeatherDisplay:10.37,2013-11-09 00:09:00,
2013-11-08 19:14:00,34.3,25.5,30.01,NW,310,5.0,12.0,70,0.00,BKN,OVC,0.00,WeatherDisplay:10.37,2013-11-09 00:14:00,
2013-11-08 19:19:00,34.4,25.6,30.01,NW,307,3.0,8.0,70,0.00,BKN,OVC,0.00,WeatherDisplay:10.37,2013-11-09 00:19:00,
2013-11-08 19:24:00,34.4,25.6,30.01,NW,309,5.0,9.0,70,0.00,BKN,OVC,0.00,WeatherDisplay:10.37,2013-11-09 00:24:00,
2013-11-08 19:29:00,34.4,25.6,30.01,NW,306,5.0,9.0,70,0.00,BKN,OVC,0.00,WeatherDisplay:10.37,2013-11-09 00:29:00,
2013-11-08 19:34:00,34.3,25.5,30.01,NW,306,2.0,9.0,70,0.00,BKN,OVC,0.00,WeatherDisplay:10.37,2013-11-09 00:34:00,
2013-11-08 19:39:00,34.2,25.4,30.01,WNW,292,3.0,7.0,70,0.00,BKN,OVC,0.00,WeatherDisplay:10.37,2013-11-09 00:39:00,
2013-11-08 19:44:00,34.1,25.3,30.01,West,275,2.0,10.0,70,0.00,BKN,OVC,0.00,WeatherDisplay:10.37,2013-11-09 00:44:00,
2013-11-08 19:49:00,34.0,25.2,30.01,WNW,287,2.0,8.0,70,0.00,BKN,OVC,0.00,WeatherDisplay:10.37,2013-11-09 00:49:00,
2013-11-08 19:54:00,33.9,25.1,30.01,WNW,291,1.0,8.0,70,0.00,BKN,OVC,0.00,WeatherDisplay:10.37,2013-11-09 00:54:00,
2013-11-08 19:59:00,33.8,25.0,30.01,WNW,296,1.0,8.0,70,0.00,BKN,OVC,0.00,WeatherDisplay:10.37,2013-11-09 00:59:00,
2013-11-08 20:04:00,33.7,25.0,30.02,WNW,293,1.0,7.0,70,0.00,BKN,OVC,0.00,WeatherDisplay:10.37,2013-11-09 01:04:00,
2013-11-08 20:09:00,33.6,24.9,30.02,WNW,299,2.0,7.0,70,0.00,BKN,OVC,0.00,WeatherDisplay:10.37,2013-11-09 01:09:00,
2013-11-08 20:14:00,33.5,25.1,30.02,West,274,3.0,7.0,71,0.00,SCT,OVC,0.00,WeatherDisplay:10.37,2013-11-09 01:14:00,
2013-11-08 20:19:00,33.4,25.0,30.02,West,280,2.0,9.0,71,0.00,SCT,OVC,0.00,WeatherDisplay:10.37,2013-11-09 01:19:00,
2013-11-08 20:24:00,33.3,24.9,30.02,WNW,293,3.0,8.0,71,0.00,SCT,OVC,0.00,WeatherDisplay:10.37,2013-11-09 01:24:00,
2013-11-08 20:29:00,33.3,25.2,30.02,WNW,296,3.0,7.0,72,0.00,SCT,OVC,0.00,WeatherDisplay:10.37,2013-11-09 01:29:00,
2013-11-08 20:34:00,33.2,25.1,30.02,NW,304,2.0,7.0,72,0.00,SCT,OVC,0.00,WeatherDisplay:10.37,2013-11-09 01:34:00,
2013-11-08 20:39:00,33.2,25.1,30.02,WNW,289,5.0,9.0,72,0.00,SCT,OVC,0.00,WeatherDisplay:10.37,2013-11-09 01:39:00,
2013-11-08 20:44:00,33.1,25.1,30.03,WNW,293,2.0,9.0,72,0.00,SCT,OVC,0.00,WeatherDisplay:10.37,2013-11-09 01:44:00,
2013-11-08 20:49:00,33.1,25.1,30.03,WNW,292,3.0,7.0,72,0.00,SCT,OVC,0.00,WeatherDisplay:10.37,2013-11-09 01:49:00,
2013-11-08 20:54:00,33.1,25.1,30.03,WNW,303,1.0,13.0,72,0.00,SCT,OVC,0.00,WeatherDisplay:10.37,2013-11-09 01:54:00,
2013-11-08 20:59:00,33.1,25.1,30.03,WNW,302,1.0,13.0,72,0.00,SCT,OVC,0.00,WeatherDisplay:10.37,2013-11-09 01:59:00,
2013-11-08 21:05:00,33.1,25.1,30.03,WNW,295,2.0,6.0,72,0.00,SCT,OVC,0.00,WeatherDisplay:10.37,2013-11-09 02:05:00,
2013-11-08 21:10:00,33.1,25.1,30.04,WNW,303,2.0,8.0,72,0.00,SCT,OVC,0.00,WeatherDisplay:10.37,2013-11-09 02:10:00,
2013-11-08 21:15:00,33.1,25.1,30.04,WNW,295,2.0,8.0,72,0.00,SCT,OVC,0.00,WeatherDisplay:10.37,2013-11-09 02:15:00,
2013-11-08 21:20:00,33.2,25.1,30.04,WNW,289,1.0,6.0,72,0.00,SCT,OVC,0.00,WeatherDisplay:10.37,2013-11-09 02:20:00,
2013-11-08 21:25:00,33.1,25.1,30.04,West,277,3.0,9.0,72,0.00,SCT,OVC,0.00,WeatherDisplay:10.37,2013-11-09 02:25:00,
2013-11-08 21:30:00,33.1,25.1,30.04,WNW,288,2.0,6.0,72,0.00,SCT,OVC,0.00,WeatherDisplay:10.37,2013-11-09 02:30:00,
2013-11-08 21:35:00,33.0,25.0,30.04,WNW,291,1.0,7.0,72,0.00,SCT,OVC,0.00,WeatherDisplay:10.37,2013-11-09 02:35:00,
2013-11-08 21:40:00,33.0,25.0,30.04,WNW,301,5.0,8.0,72,0.00,SCT,OVC,0.00,WeatherDisplay:10.37,2013-11-09 02:40:00,
2013-11-08 21:45:00,33.0,25.0,30.04,WNW,303,1.0,6.0,72,0.00,SCT,OVC,0.00,WeatherDisplay:10.37,2013-11-09 02:45:00,
2013-11-08 21:50:00,33.0,25.3,30.04,WNW,297,1.0,5.0,73,0.00,SCT,OVC,0.00,WeatherDisplay:10.37,2013-11-09 02:50:00,
2013-11-08 21:55:00,33.0,25.0,30.04,WNW,300,1.0,7.0,72,0.00,SCT,OVC,0.00,WeatherDisplay:10.37,2013-11-09 02:55:00,
2013-11-08 22:05:00,33.2,25.1,30.05,WNW,292,3.0,12.0,72,0.00,SCT,OVC,0.00,WeatherDisplay:10.37,2013-11-09 03:05:00,
2013-11-08 22:10:00,33.4,25.3,30.05,WNW,303,3.0,8.0,72,0.00,SCT,OVC,0.00,WeatherDisplay:10.37,2013-11-09 03:10:00,
2013-11-08 22:15:00,33.5,25.1,30.05,WNW,294,3.0,8.0,71,0.00,FEW,OVC,0.00,WeatherDisplay:10.37,2013-11-09 03:15:00,
2013-11-08 22:20:00,33.6,25.2,30.05,WNW,293,5.0,10.0,71,0.00,FEW,OVC,0.00,WeatherDisplay:10.37,2013-11-09 03:20:00,
2013-11-08 22:25:00,33.8,25.4,30.05,WNW,295,7.0,10.0,71,0.00,FEW,OVC,0.00,WeatherDisplay:10.37,2013-11-09 03:25:00,
2013-11-08 22:30:00,33.9,25.5,30.05,WNW,303,6.0,8.0,71,0.00,FEW,OVC,0.00,WeatherDisplay:10.37,2013-11-09 03:30:00,
2013-11-08 22:35:00,34.0,25.6,30.05,WNW,303,2.0,6.0,71,0.00,FEW,OVC,0.00,WeatherDisplay:10.37,2013-11-09 03:35:00,
2013-11-08 22:40:00,34.0,25.6,30.05,West,276,3.0,14.0,71,0.00,FEW,OVC,0.00,WeatherDisplay:10.37,2013-11-09 03:40:00,
2013-11-08 22:45:00,34.0,25.2,30.05,WNW,287,9.0,13.0,70,0.00,FEW,OVC,0.00,WeatherDisplay:10.37,2013-11-09 03:45:00,
2013-11-08 22:50:00,34.1,25.3,30.05,WNW,299,8.0,14.0,70,0.00,FEW,OVC,0.00,WeatherDisplay:10.37,2013-11-09 03:50:00,
2013-11-08 22:55:00,34.1,25.3,30.05,WNW,296,5.0,10.0,70,0.00,FEW,OVC,0.00,WeatherDisplay:10.37,2013-11-09 03:55:00,
2013-11-08 23:00:00,34.1,25.3,30.05,NW,306,6.0,12.0,70,0.00,FEW,OVC,0.00,WeatherDisplay:10.37,2013-11-09 04:00:00,
2013-11-08 23:05:00,34.1,25.3,30.05,NW,308,5.0,9.0,70,0.00,FEW,OVC,0.00,WeatherDisplay:10.37,2013-11-09 04:05:00,
2013-11-08 23:10:00,34.0,25.3,30.05,NW,307,5.0,10.0,70,0.00,FEW,OVC,0.00,WeatherDisplay:10.37,2013-11-09 04:10:00,
2013-11-08 23:15:00,34.0,25.2,30.05,NW,304,3.0,8.0,70,0.00,SCT,OVC,0.00,WeatherDisplay:10.37,2013-11-09 04:15:00,
2013-11-08 23:20:00,34.0,25.2,30.05,WNW,303,2.0,9.0,70,0.00,SCT,OVC,0.00,WeatherDisplay:10.37,2013-11-09 04:20:00,
2013-11-08 23:25:00,33.9,25.1,30.06,WNW,302,6.0,10.0,70,0.00,SCT,OVC,0.00,WeatherDisplay:10.37,2013-11-09 04:25:00,
2013-11-08 23:30:00,33.8,25.1,30.06,NW,307,3.0,8.0,70,0.00,SCT,OVC,0.00,WeatherDisplay:10.37,2013-11-09 04:30:00,
2013-11-08 23:35:00,33.9,25.1,30.06,NW,305,5.0,9.0,70,0.00,SCT,OVC,0.00,WeatherDisplay:10.37,2013-11-09 04:35:00,
2013-11-08 23:40:00,34.0,25.2,30.06,WNW,297,5.0,12.0,70,0.00,SCT,OVC,0.00,WeatherDisplay:10.37,2013-11-09 04:40:00,
2013-11-08 23:45:00,34.1,25.3,30.06,WNW,302,6.0,12.0,70,0.00,SCT,OVC,0.00,WeatherDisplay:10.37,2013-11-09 04:45:00,
2013-11-08 23:50:00,34.2,25.1,30.06,WNW,300,5.0,10.0,69,0.00,SCT,OVC,0.00,WeatherDisplay:10.37,2013-11-09 04:50:00,
2013-11-08 23:55:00,34.3,25.2,30.06,WNW,295,6.0,10.0,69,0.00,SCT,OVC,0.00,WeatherDisplay:10.37,2013-11-09 04:55:00,